Weather History for Jackson, WY

Change the Weather History Date:

Thursday, July 4, 2013

  Actual Average Record
Temperature  
Mean Temperature 70 °F -  
Max Temperature 84 °F 76 °F 89 °F (2001)
Min Temperature 57 °F 38 °F 28 °F (1973)
Cooling Degree Days 6    
Growing Degree Days 20 (Base 50)    
Moisture  
Dew Point 49 °F    
Average Humidity 54    
Maximum Humidity 72    
Minimum Humidity 27    
Precipitation  
Precipitation 0.00 in - - ()
Sea Level Pressure  
Sea Level Pressure 30.11 in    
Wind  
Wind Speed 4 mph (North)    
Max Wind Speed 18 mph    
Max Gust Speed 26 mph    
Visibility 10 miles    
Events      
Averages and records for this station are not official NWS values.
T = Trace of Precipitation, MM = Missing Value Source: NWS Daily Summary

Daily Weather History Graph

Daily Weather History Graph

Search for Another Location

Airport:

Trip Planner

Search our weather history database for the weather conditions in past years. The results will help you decide how hot, cold, wet, or windy it might be!

Date:

Astronomy

Jul. 04, 2013 Rise Set
Actual Time 5:47 AM MDT 9:07 PM MDT
Civil Twilight 5:11 AM MDT 9:42 PM MDT
Nautical Twilight 4:25 AM MDT 10:28 PM MDT
Astronomical Twilight 3:28 AM MDT 11:25 PM MDT
Moon 3:09 AM MDT (7/4) 6:12 PM MDT (7/4)
Length of Visible Light 16h 31m
Length of Day
15h 19m
Waning Crescent, 11% of the Moon is Illuminated
Jul 4
Waning Crescent
Jul 8
New
Jul 15
First Quarter
Jul 22
Full
Jul 29
Last Quarter

Hourly Weather History & Observations

Time (MDT) Temp. Dew Point Humidity Pressure Visibility Wind Dir Wind Speed Gust Speed Precip Events Conditions
12:15 AM 71.6 °F 44.6 °F 38% 30.14 in 10.0 mi Calm Calm - N/A   Mostly Cloudy
12:35 AM 71.6 °F 44.6 °F 38% 30.14 in 10.0 mi NW 5.8 mph - N/A   Overcast
12:55 AM 71.6 °F 44.6 °F 38% 30.14 in 10.0 mi Calm Calm - N/A   Mostly Cloudy
1:15 AM 71.6 °F 44.6 °F 38% 30.14 in 10.0 mi East 5.8 mph - N/A   Mostly Cloudy
1:35 AM 69.8 °F 46.4 °F 43% 30.14 in 10.0 mi SSE 4.6 mph - N/A   Mostly Cloudy
1:55 AM 68.0 °F 46.4 °F 46% 30.14 in 10.0 mi Calm Calm - N/A   Mostly Cloudy
2:15 AM 66.2 °F 46.4 °F 49% 30.14 in 10.0 mi Calm Calm - N/A   Clear
2:55 AM 62.6 °F 46.4 °F 55% 30.14 in 10.0 mi Calm Calm - N/A   Clear
3:15 AM 62.6 °F 46.4 °F 55% 30.14 in 10.0 mi Calm Calm - N/A   Scattered Clouds
3:35 AM 64.4 °F 46.4 °F 52% 30.14 in 10.0 mi Calm Calm - N/A   Mostly Cloudy
3:55 AM 64.4 °F 46.4 °F 52% 30.14 in 10.0 mi Calm Calm - N/A   Scattered Clouds
4:15 AM 64.4 °F 48.2 °F 56% 30.13 in 10.0 mi Calm Calm - N/A   Clear
4:36 AM 60.8 °F 48.2 °F 63% 30.13 in 10.0 mi NNW 5.8 mph - N/A   Clear
4:55 AM 60.8 °F 48.2 °F 63% 30.13 in 10.0 mi North 6.9 mph - N/A   Clear
5:15 AM 60.8 °F 48.2 °F 63% 30.13 in 10.0 mi North 8.1 mph - N/A   Clear
5:35 AM 59.0 °F 46.4 °F 63% 30.14 in 10.0 mi North 5.8 mph - N/A   Clear
5:55 AM 57.2 °F 46.4 °F 67% 30.14 in 10.0 mi North 10.4 mph - N/A   Scattered Clouds
6:15 AM 57.2 °F 46.4 °F 67% 30.15 in 10.0 mi North 6.9 mph - N/A   Scattered Clouds
6:35 AM 57.2 °F 48.2 °F 72% 30.15 in 10.0 mi North 5.8 mph - N/A   Scattered Clouds
6:51 AM 57.2 °F 46.4 °F 67% 30.15 in 10.0 mi North 8.1 mph - N/A   Mostly Cloudy
7:52 AM 62.6 °F 48.2 °F 59% 30.16 in 10.0 mi North 9.2 mph - N/A   Mostly Cloudy
8:51 AM 68.0 °F 48.2 °F 49% 30.16 in 10.0 mi Calm Calm - N/A   Scattered Clouds
9:51 AM 71.6 °F 48.2 °F 43% 30.15 in 10.0 mi Calm Calm - N/A   Clear
10:51 AM 75.2 °F 48.2 °F 38% 30.13 in 10.0 mi SSE 8.1 mph - N/A   Clear
11:51 AM 78.8 °F 51.8 °F 39% 30.12 in 10.0 mi SSW 8.1 mph - N/A   Scattered Clouds
12:51 PM 80.6 °F 51.8 °F 37% 30.10 in 10.0 mi SSW 9.2 mph 16.1 mph N/A   Scattered Clouds
1:51 PM 80.6 °F 48.2 °F 32% 30.08 in 10.0 mi SSW 6.9 mph - N/A   Scattered Clouds
2:58 PM 84.2 °F 46.4 °F 27% 30.04 in 10.0 mi WNW 4.6 mph - N/A   Scattered Clouds
3:51 PM 80.6 °F 46.4 °F 30% 30.03 in 10.0 mi South 5.8 mph - N/A   Mostly Cloudy
4:53 PM 82.4 °F 46.4 °F 28% 30.02 in 10.0 mi SW 10.4 mph 21.9 mph N/A   Scattered Clouds
6:57 PM 71.6 °F 53.6 °F 53% 30.04 in 10.0 mi NE 11.5 mph - N/A   Mostly Cloudy
7:51 PM 69.8 °F 53.6 °F 56% 30.07 in 10.0 mi North 18.4 mph 26.5 mph N/A   Mostly Cloudy
8:54 PM 66.2 °F 51.8 °F 60% 30.08 in 10.0 mi North 11.5 mph - N/A   Mostly Cloudy
9:15 PM 64.4 °F 53.6 °F 68% 30.08 in 10.0 mi North 10.4 mph - N/A   Mostly Cloudy
9:35 PM 64.4 °F 53.6 °F 68% 30.08 in 10.0 mi North 10.4 mph - N/A   Mostly Cloudy
9:55 PM 62.6 °F 53.6 °F 72% 30.08 in 10.0 mi NNE 9.2 mph - N/A   Mostly Cloudy
10:15 PM 62.6 °F 53.6 °F 72% 30.08 in 10.0 mi NNW 6.9 mph - N/A   Partly Cloudy
10:35 PM 62.6 °F 53.6 °F 72% 30.07 in 10.0 mi North 6.9 mph - N/A   Clear
10:55 PM 62.6 °F 51.8 °F 68% 30.07 in 10.0 mi NNW 6.9 mph - N/A   Scattered Clouds
11:15 PM 62.6 °F 51.8 °F 68% 30.07 in 10.0 mi NE 3.5 mph - N/A   Overcast
11:35 PM 62.6 °F 51.8 °F 68% 30.07 in 10.0 mi Calm Calm - N/A   Overcast
11:55 PM 60.8 °F 51.8 °F 72% 30.07 in 10.0 mi Calm Calm - N/A   Mostly Cloudy